Location: Brno
(49.2000°N, 16.6330°E)
Time: 02:43:39
(UTC+01:00)

ISS - Visible Passes

Search period start: 02 December 2021 00:00
Search period end: 12 December 2021 00:00
Orbit: 417 x 423 km, 51.6° (Epoch: 01 December)

Date Brightness Start Highest point End Pass type
(mag) Time Alt. Az. Time Alt. Az. Time Alt. Az.
02 Dec -3.9 17:58:38 10° WNW 18:02:03 89° SSW 18:02:15 78° ESE visible
03 Dec -3.8 17:11:25 10° WNW 17:14:50 73° NNE 17:17:10 19° E visible
03 Dec -1.3 18:48:25 10° W 18:50:10 23° WSW 18:50:10 23° WSW visible
04 Dec -2.9 18:01:06 10° WNW 18:04:24 47° SSW 18:05:13 37° SSE visible
05 Dec -3.4 17:13:51 10° WNW 17:17:13 66° SSW 17:20:26 11° ESE visible
05 Dec -0.9 18:51:33 10° W 18:53:27 15° SW 18:53:27 15° SW visible
06 Dec -3.7 16:26:36 10° WNW 16:30:01 88° SSW 16:33:25 10° ESE visible
06 Dec -1.4 18:03:50 10° W 18:06:31 22° SW 18:08:54 12° S visible
07 Dec -1.9 17:16:22 10° W 17:19:26 32° SW 17:22:29 10° SSE visible
08 Dec -2.5 16:29:00 10° WNW 16:32:17 46° SSW 16:35:33 10° SE visible
09 Dec -0.6 17:19:27 10° WSW 17:21:25 15° SW 17:23:22 10° S visible
10 Dec -0.8 16:31:40 10° W 16:34:20 22° SW 16:37:00 10° SSE visible
